Location: Aalen
(48.8330°N, 10.1000°E)
Time: 07:27:13
(UTC+02:00)

UWE-3 - Pass Details

Date: 05 April 2023
Orbit: 576 x 670 km, 97.7° (Epoch: 29 May)

Event Time Altitude Azimuth Distance (km) Brightness Sun altitude
Rises 04:49:01 0° 9° (N) 2,967 ? -19.2°
Reaches altitude 10° 04:51:18 10° 5° (N) 2,037 ? -18.9°
Maximum altitude 04:55:37 54° 289° (WNW) 764 ? -18.3°
Enters shadow 04:56:54 39° 236° (WSW) 941 ? -18.1°
